FW7706 Weather Reports


time (UTC)temp
C
wind
direction
speed
KPH
gust
KPH
rain 1hr
cm
rain 24hr
cm
rain mn
cm
humidity
%
barometer
mb
20220629042017 23 198 0.0 0.0 0.00 0.00 0.00 72 1022.6
20220629041516 23 229 0.0 0.0 0.00 0.00 0.00 72 1021.9
20220629041016 23 213 0.0 0.0 0.00 0.00 0.00 71 1022.2
20220629040516 23 205 0.0 0.0 0.00 0.00 0.00 70 1021.9
20220629040015 23 200 0.0 0.0 0.00 0.00 0.00 69 1022.2
20220629035514 23 191 0.0 0.0 0.00 0.00 0.00 68 1021.9
20220629035013 24 217 0.0 0.0 0.00 0.00 0.00 67 1021.9
20220629034512 24 230 0.0 0.0 0.00 0.00 0.00 66 1021.9
20220629034011 24 153 1.6 1.6 0.00 0.00 0.00 66 1021.9
20220629033511 24 229 0.0 0.0 0.00 0.00 0.00 66 1021.9
20220629033011 25 230 0.0 0.0 0.00 0.00 0.00 65 1021.9
20220629032510 25 245 1.6 1.6 0.00 0.00 0.00 65 1021.5
20220629032009 25 177 1.6 1.6 0.00 0.00 0.00 65 1021.5
20220629031508 25 332 1.6 1.6 0.00 0.00 0.00 64 1021.2
20220629031006 25 203 0.0 0.0 0.00 0.00 0.00 64 1021.2
20220629030505 25 200 0.0 0.0 0.00 0.00 0.00 63 1021.5
20220629030004 25 187 0.0 0.0 0.00 0.00 0.00 63 1021.5
20220629025505 25 207 0.0 0.0 0.00 0.00 0.00 63 1021.2
20220629025003 25 220 0.0 1.6 0.00 0.00 0.00 62 1021.5
20220629024502 25 189 0.0 1.6 0.00 0.00 0.00 62 1021.2
20220629024001 25 93 3.2 3.2 0.00 0.00 0.00 61 1020.8
20220629023500 25 82 1.6 3.2 0.00 0.00 0.00 61 1020.8
20220629023000 26 237 0.0 0.0 0.00 0.00 0.00 60 1020.8
20220629022500 26 229 0.0 0.0 0.00 0.00 0.00 60 1020.8
20220629021958 26 133 1.6 1.6 0.00 0.00 0.00 59 1020.8
20220629021457 26 74 0.0 1.6 0.00 0.00 0.00 58 1021.2
20220629020956 26 266 1.6 1.6 0.00 0.00 0.00 58 1020.8
20220629020456 26 207 0.0 0.0 0.00 0.00 0.00 57 1020.8
20220629015956 26 213 0.0 0.0 0.00 0.00 0.00 57 1020.4
20220629015455 26 250 1.6 3.2 0.00 0.00 0.00 56 1020.8
20220629014955 27 268 1.6 3.2 0.00 0.00 0.00 55 1020.4
20220629014455 27 72 1.6 1.6 0.00 0.00 0.00 54 1020.8
20220629013954 27 65 0.0 1.6 0.00 0.00 0.00 54 1020.4
20220629013453 27 287 0.0 0.0 0.00 0.00 0.00 54 1020.4
20220629012953 27 268 0.0 1.6 0.00 0.00 0.00 53 1020.4
20220629012452 27 173 1.6 1.6 0.00 0.00 0.00 52 1020.4
20220629011948 28 197 0.0 1.6 0.00 0.00 0.00 52 1020.4
20220629011447 28 102 0.0 0.0 0.00 0.00 0.00 52 1020.4
20220629010947 28 102 0.0 0.0 0.00 0.00 0.00 50 1020.4
20220629010446 28 156 1.6 1.6 0.00 0.00 0.00 50 1020.4
20220629005946 28 91 3.2 4.8 0.00 0.00 0.00 49 1020.1
20220629005445 28 345 3.2 3.2 0.00 0.00 0.00 49 1020.1
20220629004945 28 213 1.6 1.6 0.00 0.00 0.00 48 1020.1
20220629004444 28 51 4.8 4.8 0.00 0.00 0.00 49 1020.1
20220629003942 29 147 3.2 3.2 0.00 0.00 0.00 48 1020.1
20220629003442 29 335 4.8 8.0 0.00 0.00 0.00 48 1020.1
20220629002942 29 68 3.2 3.2 0.00 0.00 0.00 48 1020.1
20220629002441 29 149 1.6 1.6 0.00 0.00 0.00 48 1020.1
20220629001939 29 55 6.4 11.3 0.00 0.00 0.00 47 1020.1
20220629001438 30 113 6.4 8.0 0.00 0.00 0.00 46 1020.1
20220629000938 30 38 3.2 3.2 0.00 0.00 0.00 46 1020.1
20220629000438 30 24 1.6 1.6 0.00 0.00 0.00 45 1020.1
20220628235938 30 26 4.8 4.8 0.00 0.00 0.00 45 1020.1
20220628235436 30 24 6.4 8.0 0.00 0.00 0.00 45 1020.1
20220628234935 30 8 4.8 8.0 0.00 0.00 0.00 43 1020.1
20220628234434 30 62 8.0 12.9 0.00 0.00 0.00 44 1020.1
20220628233933 30 69 3.2 3.2 0.00 0.00 0.00 44 1020.1
20220628233432 30 103 1.6 3.2 0.00 0.00 0.00 43 1020.1
20220628232931 30 167 4.8 8.0 0.00 0.00 0.00 43 1019.8
20220628232429 30 26 8.0 11.3 0.00 0.00 0.00 43 1019.8
20220628231929 31 211 1.6 3.2 0.00 0.00 0.00 42 1020.1
20220628231428 31 38 11.3 20.9 0.00 0.00 0.00 42 1020.1
20220628230927 31 21 3.2 4.8 0.00 0.00 0.00 41 1020.1
20220628230426 31 205 1.6 3.2 0.00 0.00 0.00 41 1020.1
20220628225926 31 336 1.6 1.6 0.00 0.00 0.00 40 1020.1
20220628225424 31 79 4.8 4.8 0.00 0.00 0.00 41 1020.4
20220628224922 31 30 4.8 9.7 0.00 0.00 0.00 40 1020.4
20220628224421 31 34 4.8 8.0 0.00 0.00 0.00 40 1020.1
20220628223921 31 73 8.0 11.3 0.00 0.00 0.00 40 1020.4
20220628223420 32 49 9.7 12.9 0.00 0.00 0.00 39 1020.1
20220628222920 31 224 1.6 1.6 0.00 0.00 0.00 39 1020.4
20220628222419 31 2 4.8 9.7 0.00 0.00 0.00 39 1020.4
20220628221918 32 102 6.4 12.9 0.00 0.00 0.00 39 1020.4
20220628221418 31 46 9.7 11.3 0.00 0.00 0.00 39 1020.8
20220628220917 31 151 4.8 4.8 0.00 0.00 0.00 39 1020.8
20220628220416 31 241 3.2 3.2 0.00 0.00 0.00 38 1020.8
20220628215916 31 27 11.3 12.9 0.00 0.00 0.00 38 1020.8
20220628215415 32 58 3.2 4.8 0.00 0.00 0.00 37 1020.8
20220628214915 31 127 4.8 4.8 0.00 0.00 0.00 36 1021.2
20220628214414 31 80 4.8 4.8 0.00 0.00 0.00 36 1021.2
20220628213912 32 310 6.4 9.7 0.00 0.00 0.00 37 1021.2
20220628213410 31 63 3.2 4.8 0.00 0.00 0.00 38 1021.2
20220628212909 32 22 6.4 11.3 0.00 0.00 0.00 37 1021.5
20220628212408 32 96 1.6 1.6 0.00 0.00 0.00 36 1021.5
20220628211907 31 50 4.8 8.0 0.00 0.00 0.00 38 1021.5
20220628211406 31 32 9.7 12.9 0.00 0.00 0.00 35 1021.9
20220628210905 31 228 4.8 8.0 0.00 0.00 0.00 36 1021.9
20220628210404 32 207 4.8 8.0 0.00 0.00 0.00 35 1021.9
20220628205903 32 209 1.6 3.2 0.00 0.00 0.00 36 1021.9
20220628205403 31 173 4.8 8.0 0.00 0.00 0.00 34 1021.5
20220628204902 31 347 3.2 4.8 0.00 0.00 0.00 39 1021.9
20220628204401 32 103 4.8 8.0 0.00 0.00 0.00 37 1022.2
20220628203900 33 61 8.0 12.9 0.00 0.00 0.00 35 1022.2
20220628203400 32 193 1.6 1.6 0.00 0.00 0.00 35 1021.9
20220628202859 32 61 3.2 8.0 0.00 0.00 0.00 34 1022.2
20220628202359 32 120 3.2 3.2 0.00 0.00 0.00 36 1022.2
20220628201900 32 66 3.2 4.8 0.00 0.00 0.00 35 1022.2
20220628201358 33 281 4.8 4.8 0.00 0.00 0.00 36 1022.2
20220628200857 32 209 1.6 1.6 0.00 0.00 0.00 36 1022.6
20220628200357 31 116 4.8 8.0 0.00 0.00 0.00 38 1022.6
20220628195856 31 29 4.8 4.8 0.00 0.00 0.00 38 1022.6
20220628195356 31 120 4.8 4.8 0.00 0.00 0.00 38 1022.6
20220628194855 31 114 3.2 3.2 0.00 0.00 0.00 36 1022.6
20220628194354 31 260 0.0 1.6 0.00 0.00 0.00 38 1022.6
20220628193852 31 1 3.2 3.2 0.00 0.00 0.00 37 1022.6
20220628193351 31 263 3.2 4.8 0.00 0.00 0.00 37 1022.6
20220628192851 30 76 9.7 12.9 0.00 0.00 0.00 36 1022.6
20220628192350 31 67 3.2 8.0 0.00 0.00 0.00 41 1022.6
20220628191849 32 105 3.2 3.2 0.00 0.00 0.00 38 1022.9
20220628191348 31 215 1.6 1.6 0.00 0.00 0.00 39 1022.6
20220628190847 31 346 1.6 3.2 0.00 0.00 0.00 41 1022.9
20220628190344 30 135 4.8 8.0 0.00 0.00 0.00 42 1023.2
20220628185843 31 92 3.2 8.0 0.00 0.00 0.00 39 1023.2
20220628185342 31 41 6.4 11.3 0.00 0.00 0.00 39 1023.2
20220628184842 32 30 4.8 4.8 0.00 0.00 0.00 39 1023.2
20220628184341 30 222 3.2 3.2 0.00 0.00 0.00 41 1023.2
20220628183839 30 149 9.7 12.9 0.00 0.00 0.00 40 1023.6
20220628183339 30 229 1.6 4.8 0.00 0.00 0.00 40 1023.6
20220628182838 30 108 4.8 8.0 0.00 0.00 0.00 41 1023.6
20220628182337 30 28 6.4 8.0 0.00 0.00 0.00 41 1023.9
20220628181837 30 84 4.8 8.0 0.00 0.00 0.00 42 1023.6
20220628181337 30 41 12.9 17.7 0.00 0.00 0.00 41 1023.9
20220628180835 30 81 4.8 8.0 0.00 0.00 0.00 43 1023.9
20220628180334 30 235 3.2 4.8 0.00 0.00 0.00 41 1023.9
20220628175833 30 156 8.0 9.7 0.00 0.00 0.00 41 1023.6
20220628175332 30 66 4.8 8.0 0.00 0.00 0.00 42 1024.3
20220628174831 30 58 4.8 4.8 0.00 0.00 0.00 43 1023.9
20220628174330 30 184 1.6 1.6 0.00 0.00 0.00 43 1023.9
20220628173829 29 57 4.8 8.0 0.00 0.00 0.00 44 1023.9
20220628173325 30 84 1.6 3.2 0.00 0.00 0.00 43 1024.3
20220628172825 30 146 0.0 0.0 0.00 0.00 0.00 44 1023.9
20220628172325 28 5 4.8 4.8 0.00 0.00 0.00 45 1024.3
20220628171824 28 46 4.8 8.0 0.00 0.00 0.00 44 1024.3
20220628171323 28 100 6.4 9.7 0.00 0.00 0.00 44 1024.6
20220628170823 28 117 8.0 11.3 0.00 0.00 0.00 44 1024.3
20220628170322 29 59 9.7 12.9 0.00 0.00 0.00 45 1024.3
20220628165822 28 100 3.2 3.2 0.00 0.00 0.00 44 1024.3
20220628165322 28 172 8.0 9.7 0.00 0.00 0.00 45 1024.3
20220628164821 30 102 1.6 3.2 0.00 0.00 0.00 45 1024.6
20220628164320 29 113 3.2 3.2 0.00 0.00 0.00 45 1024.6
20220628163819 28 99 6.4 8.0 0.00 0.00 0.00 45 1024.3
20220628163319 28 1 8.0 11.3 0.00 0.00 0.00 47 1024.6
20220628162818 29 168 0.0 1.6 0.00 0.00 0.00 45 1024.3
20220628162317 28 174 3.2 4.8 0.00 0.00 0.00 46 1024.6
20220628161818 28 195 6.4 8.0 0.00 0.00 0.00 46 1024.3
20220628161316 28 0 3.2 4.8 0.00 0.00 0.00 45 1024.6
20220628160815 28 122 4.8 4.8 0.00 0.00 0.00 46 1024.6
20220628160314 27 109 1.6 3.2 0.00 0.00 0.00 48 1024.6
20220628155814 28 151 3.2 4.8 0.00 0.00 0.00 47 1024.6
20220628155312 27 161 1.6 1.6 0.00 0.00 0.00 49 1024.6
20220628154810 27 210 4.8 4.8 0.00 0.00 0.00 48 1024.6
20220628154310 28 86 4.8 4.8 0.00 0.00 0.00 47 1024.6
20220628153808 28 81 8.0 11.3 0.00 0.00 0.00 48 1024.6
20220628153308 27 89 8.0 11.3 0.00 0.00 0.00 51 1024.6
20220628152806 27 63 3.2 3.2 0.00 0.00 0.00 51 1024.6
20220628152306 27 164 3.2 4.8 0.00 0.00 0.00 52 1024.3
20220628151804 27 28 4.8 8.0 0.00 0.00 0.00 54 1024.3
20220628151304 27 60 4.8 8.0 0.00 0.00 0.00 53 1024.3
20220628150803 26 46 8.0 9.7 0.00 0.00 0.00 54 1024.3
20220628150303 27 168 1.6 3.2 0.00 0.00 0.00 54 1024.3
20220628145802 26 108 3.2 3.2 0.00 0.00 0.00 55 1024.3
20220628145301 26 72 4.8 8.0 0.00 0.00 0.00 56 1024.3
20220628144800 27 72 8.0 11.3 0.00 0.00 0.00 54 1024.3
20220628144300 26 137 1.6 3.2 0.00 0.00 0.00 56 1024.3
20220628143759 26 223 3.2 4.8 0.00 0.00 0.00 55 1024.3
20220628143259 26 206 1.6 1.6 0.00 0.00 0.00 56 1024.3
20220628142757 26 165 6.4 8.0 0.00 0.00 0.00 56 1023.9
20220628142256 26 119 6.4 9.7 0.00 0.00 0.00 56 1024.3
20220628141755 26 88 4.8 4.8 0.00 0.00 0.00 59 1024.3
20220628141253 25 43 4.8 4.8 0.00 0.00 0.00 60 1024.3
20220628140752 25 90 1.6 1.6 0.00 0.00 0.00 61 1023.9
20220628140252 25 49 3.2 3.2 0.00 0.00 0.00 61 1024.3
20220628135752 25 55 4.8 8.0 0.00 0.00 0.00 63 1023.9
20220628135251 25 105 4.8 8.0 0.00 0.00 0.00 64 1024.3
20220628134750 25 96 4.8 4.8 0.00 0.00 0.00 65 1023.9
20220628134249 24 70 3.2 3.2 0.00 0.00 0.00 66 1023.9
20220628133749 23 115 4.8 4.8 0.00 0.00 0.00 67 1024.3
20220628133249 23 76 4.8 8.0 0.00 0.00 0.00 70 1024.3
20220628132748 23 103 3.2 4.8 0.00 0.00 0.00 73 1024.3
20220628132247 23 155 0.0 1.6 0.00 0.00 0.00 73 1024.3
20220628131746 22 117 3.2 3.2 0.00 0.00 0.00 74 1024.3
20220628131245 22 357 3.2 4.8 0.00 0.00 0.00 76 1024.3
20220628130744 22 18 3.2 4.8 0.00 0.00 0.00 78 1024.3
20220628130243 22 74 4.8 4.8 0.00 0.00 0.00 79 1024.3
20220628125742 21 60 3.2 3.2 0.00 0.00 0.00 80 1023.9
20220628125241 21 19 3.2 3.2 0.00 0.00 0.00 81 1023.9
20220628124740 21 26 3.2 3.2 0.00 0.00 0.00 82 1023.9
20220628124240 21 44 3.2 3.2 0.00 0.00 0.00 82 1023.6
20220628123738 20 60 3.2 3.2 0.00 0.00 0.00 83 1023.6
20220628123238 20 338 1.6 3.2 0.00 0.00 0.00 84 1023.6
20220628122737 20 103 4.8 4.8 0.00 0.00 0.00 85 1023.9
20220628122236 20 102 4.8 4.8 0.00 0.00 0.00 85 1023.9
20220628121734 20 3 6.4 8.0 0.00 0.00 0.00 86 1023.9
20220628121233 19 46 1.6 1.6 0.00 0.00 0.00 87 1023.6
20220628120732 19 53 3.2 3.2 0.00 0.00 0.00 88 1023.9
20220628120232 19 323 1.6 3.2 0.00 0.00 0.00 89 1023.9
20220628115731 18 48 1.6 1.6 0.00 0.00 0.00 89 1023.6
20220628115231 19 3 1.6 3.2 0.00 0.00 0.00 90 1023.6
20220628114729 19 355 3.2 4.8 0.00 0.00 0.00 90 1023.6
20220628114229 18 352 1.6 4.8 0.00 0.00 0.00 90 1023.6
20220628113728 18 33 1.6 1.6 0.00 0.00 0.00 91 1023.2
20220628113227 18 316 1.6 1.6 0.00 0.00 0.00 92 1023.2
20220628112726 18 316 0.0 1.6 0.00 0.00 0.00 92 1023.2
20220628112226 18 316 0.0 1.6 0.00 0.00 0.00 93 1023.6
20220628111724 18 315 3.2 3.2 0.00 0.00 0.00 94 1023.2
20220628111223 18 256 1.6 1.6 0.00 0.00 0.00 94 1022.9
20220628110723 18 228 0.0 0.0 0.00 0.00 0.00 95 1023.2
20220628110222 18 227 0.0 0.0 0.00 0.00 0.00 95 1023.2
20220628105720 18 218 0.0 0.0 0.00 0.00 0.00 95 1023.2
20220628105218 18 218 0.0 0.0 0.00 0.00 0.00 95 1022.9
20220628104717 18 223 0.0 0.0 0.00 0.00 0.00 95 1023.2
20220628104215 18 223 0.0 0.0 0.00 0.00 0.00 95 1023.2
20220628103715 18 223 0.0 0.0 0.00 0.00 0.00 95 1022.9
20220628103213 18 223 0.0 0.0 0.00 0.00 0.00 95 1022.9
20220628102712 18 223 0.0 0.0 0.00 0.00 0.00 95 1022.9
20220628102211 18 223 0.0 0.0 0.00 0.00 0.00 95 1022.9
20220628101710 18 223 0.0 0.0 0.00 0.00 0.00 95 1023.2
20220628101209 18 223 0.0 0.0 0.00 0.00 0.00 95 1022.9
20220628100708 18 223 0.0 0.0 0.00 0.00 0.00 95 1022.9
20220628100207 18 223 0.0 0.0 0.00 0.00 0.00 94 1022.9
20220628095707 18 223 0.0 0.0 0.00 0.00 0.00 94 1022.9
20220628095206 18 223 0.0 0.0 0.00 0.00 0.00 94 1022.6
20220628094706 18 223 0.0 0.0 0.00 0.00 0.00 94 1022.9
20220628094206 18 223 0.0 0.0 0.00 0.00 0.00 94 1022.9
20220628093704 18 239 0.0 0.0 0.00 0.00 0.00 94 1022.6
20220628093203 18 240 0.0 0.0 0.00 0.00 0.00 94 1022.6
20220628092703 18 221 0.0 0.0 0.00 0.00 0.00 94 1022.6
20220628092202 18 228 0.0 1.6 0.00 0.00 0.00 94 1022.9
20220628091702 18 211 0.0 0.0 0.00 0.00 0.00 94 1022.9
20220628091201 18 215 0.0 0.0 0.00 0.00 0.00 95 1022.6
20220628090700 18 207 0.0 0.0 0.00 0.00 0.00 94 1022.6
20220628090159 18 214 0.0 0.0 0.00 0.00 0.00 94 1022.6
20220628085658 18 220 0.0 0.0 0.00 0.00 0.00 94 1022.2
20220628085157 18 220 0.0 0.0 0.00 0.00 0.00 94 1022.6
20220628084656 18 217 0.0 0.0 0.00 0.00 0.00 94 1022.2
20220628084155 18 213 0.0 0.0 0.00 0.00 0.00 94 1022.6
20220628083655 18 212 0.0 0.0 0.00 0.00 0.00 94 1022.2
20220628083154 18 212 0.0 0.0 0.00 0.00 0.00 94 1022.2
20220628082654 18 211 0.0 0.0 0.00 0.00 0.00 94 1022.2
20220628082153 18 207 0.0 0.0 0.00 0.00 0.00 93 1022.2
20220628081653 18 206 0.0 0.0 0.00 0.00 0.00 93 1022.2
20220628081153 18 207 0.0 0.0 0.00 0.00 0.00 92 1022.6
20220628080652 19 217 0.0 0.0 0.00 0.00 0.00 91 1022.2
20220628080151 19 217 0.0 0.0 0.00 0.00 0.00 91 1022.6
20220628075650 19 217 0.0 0.0 0.00 0.00 0.00 90 1022.6
20220628075149 20 219 0.0 0.0 0.00 0.00 0.00 90 1022.6
20220628074648 20 219 0.0 0.0 0.00 0.00 0.00 90 1022.6
20220628074147 20 219 0.0 0.0 0.00 0.00 0.00 89 1022.6
20220628073647 20 219 0.0 0.0 0.00 0.00 0.00 89 1022.6
20220628073146 20 219 0.0 0.0 0.00 0.00 0.00 88 1022.6
20220628072646 20 214 0.0 0.0 0.00 0.00 0.00 89 1022.6
20220628072145 20 209 0.0 0.0 0.00 0.00 0.00 88 1022.6
20220628071644 20 222 0.0 0.0 0.00 0.00 0.00 88 1022.6
20220628071144 20 210 0.0 0.0 0.00 0.00 0.00 88 1022.9
20220628070645 20 217 0.0 0.0 0.00 0.00 0.00 87 1022.9
20220628070143 20 217 0.0 0.0 0.00 0.00 0.00 87 1022.6
20220628065642 20 217 0.0 0.0 0.00 0.00 0.00 86 1022.6
20220628065142 21 218 0.0 0.0 0.00 0.00 0.00 86 1022.9
20220628064640 21 197 0.0 0.0 0.00 0.00 0.00 86 1022.9
20220628064140 21 208 0.0 0.0 0.00 0.00 0.00 86 1022.9
20220628063639 21 201 0.0 0.0 0.00 0.00 0.00 85 1022.6
20220628063138 21 201 0.0 0.0 0.00 0.00 0.00 85 1022.9
20220628062637 21 191 0.0 1.6 0.00 0.00 0.00 85 1022.6
20220628062136 21 211 0.0 0.0 0.00 0.00 0.00 85 1022.9
20220628061635 21 206 0.0 0.0 0.00 0.00 0.00 83 1022.9
20220628061134 22 208 0.0 0.0 0.00 0.00 0.00 83 1023.2
20220628060634 22 213 0.0 0.0 0.00 0.00 0.00 82 1022.9
20220628060133 22 211 0.0 1.6 0.00 0.00 0.00 82 1022.9
20220628055632 22 201 0.0 0.0 0.00 0.00 0.00 82 1022.9
20220628055132 22 212 0.0 1.6 0.00 0.00 0.00 82 1022.9
20220628054630 22 188 1.6 1.6 0.00 0.00 0.00 83 1022.9
20220628054129 22 209 0.0 0.0 0.00 0.00 0.00 84 1022.9
20220628053627 22 202 0.0 0.0 0.00 0.00 0.00 83 1022.9
20220628053126 22 215 0.0 0.0 0.00 0.00 0.00 83 1022.9
20220628052625 22 221 0.0 0.0 0.00 0.00 0.00 83 1022.9
20220628052124 22 199 0.0 0.0 0.00 0.00 0.00 82 1022.9
20220628051622 22 207 0.0 0.0 0.00 0.00 0.00 82 1022.9
20220628051122 22 208 0.0 0.0 0.00 0.00 0.00 81 1022.9
20220628050621 23 192 0.0 1.6 0.00 0.00 0.00 80 1022.9
20220628050119 23 220 0.0 0.0 0.00 0.00 0.00 80 1022.9
20220628045618 23 216 0.0 0.0 0.00 0.00 0.00 79 1022.9
20220628045118 23 216 0.0 0.0 0.00 0.00 0.00 79 1022.6
20220628044616 23 191 0.0 0.0 0.00 0.00 0.00 79 1022.6
20220628044114 23 191 0.0 0.0 0.00 0.00 0.00 78 1023.2
20220628043614 23 202 0.0 0.0 0.00 0.00 0.00 78 1022.9
20220628043114 23 210 1.6 1.6 0.00 0.00 0.00 78 1022.6
20220628042614 23 151 1.6 1.6 0.00 0.00 0.00 79 1022.6